| time (UTC) | temp F | wind direction | speed MPH | gust MPH | rain 1hr in | rain 24hr in | rain mn in | humidity % | barometer mb |
| 20260905154005 | 62 | 264 | 1.0 | 6.0 | 0.00 | 0.05 | 0.00 | 77 | 1007.9 |
| 20260905153008 | 62 | 278 | 1.0 | 7.0 | 0.00 | 0.05 | 0.00 | 76 | 1007.8 |
| 20260905152005 | 62 | 251 | 0.0 | 10.0 | 0.00 | 0.05 | 0.00 | 73 | 1007.7 |
| 20260905151005 | 63 | 284 | 0.0 | 7.0 | 0.00 | 0.05 | 0.00 | 73 | 1007.7 |
| 20260905150008 | 63 | 246 | 2.0 | 20.0 | 0.00 | 0.05 | 0.00 | 77 | 1007.5 |
| 20260905145006 | 63 | 241 | 1.0 | 9.0 | 0.00 | 0.05 | 0.00 | 77 | 1007.5 |
| 20260905144006 | 62 | 257 | 1.0 | 10.0 | 0.00 | 0.05 | 0.00 | 76 | 1007.3 |
| 20260905143008 | 63 | 250 | 0.0 | 7.0 | 0.00 | 0.06 | 0.00 | 75 | 1007.3 |
| 20260905142005 | 64 | 265 | 0.0 | 6.0 | 0.00 | 0.06 | 0.00 | 73 | 1007.2 |
| 20260905141006 | 64 | 260 | 1.0 | 6.0 | 0.00 | 0.06 | 0.00 | 74 | 1007.2 |
| 20260905140008 | 65 | 254 | 0.0 | 7.0 | 0.00 | 0.06 | 0.00 | 73 | 1007.2 |
| 20260905135006 | 65 | 230 | 0.0 | 6.0 | 0.00 | 0.06 | 0.00 | 74 | 1007.2 |
| 20260905134007 | 65 | 248 | 1.0 | 3.0 | 0.00 | 0.06 | 0.00 | 74 | 1007.1 |
| 20260905133008 | 65 | 243 | 1.0 | 12.0 | 0.00 | 0.06 | 0.00 | 74 | 1007.0 |
| 20260905132005 | 65 | 239 | 0.0 | 12.0 | 0.00 | 0.07 | 0.00 | 75 | 1006.8 |
| 20260905131006 | 64 | 260 | 2.0 | 12.0 | 0.00 | 0.11 | 0.00 | 75 | 1006.8 |
| 20260905130008 | 64 | 263 | 2.0 | 12.0 | 0.00 | 0.16 | 0.00 | 75 | 1006.8 |
| 20260905125006 | 64 | 250 | 0.0 | 9.0 | 0.00 | 0.24 | 0.00 | 76 | 1006.7 |
| 20260905124005 | 64 | 240 | 1.0 | 7.0 | 0.00 | 0.29 | 0.00 | 75 | 1006.6 |
| 20260905123008 | 64 | 254 | 1.0 | 7.0 | 0.00 | 0.31 | 0.00 | 76 | 1006.6 |
| 20260905122005 | 64 | 258 | 0.0 | 3.0 | 0.00 | 0.32 | 0.00 | 76 | 1006.6 |
| 20260905121006 | 64 | 240 | 0.0 | 5.0 | 0.00 | 0.33 | 0.00 | 75 | 1006.2 |
| 20260905120007 | 64 | 241 | 0.0 | 9.0 | 0.00 | 0.33 | 0.00 | 75 | 1006.2 |
| 20260905115006 | 64 | 256 | 0.0 | 10.0 | 0.00 | 0.35 | 0.00 | 75 | 1006.2 |
| 20260905114005 | 64 | 236 | 0.0 | 12.0 | 0.00 | 0.36 | 0.00 | 75 | 1006.1 |
| 20260905113008 | 64 | 249 | 0.0 | 12.0 | 0.00 | 0.38 | 0.00 | 74 | 1006.1 |
| 20260905112006 | 64 | 255 | 0.0 | 7.0 | 0.00 | 0.39 | 0.00 | 73 | 1005.8 |
| 20260905111005 | 64 | 226 | 0.0 | 6.0 | 0.00 | 0.39 | 0.00 | 76 | 1005.7 |
| 20260905110008 | 64 | 244 | 0.0 | 3.0 | 0.00 | 0.40 | 0.00 | 75 | 1005.7 |
| 20260905105005 | 64 | 247 | 0.0 | 3.0 | 0.00 | 0.41 | 0.00 | 77 | 1005.6 |
| 20260905104006 | 64 | 258 | 1.0 | 9.0 | 0.00 | 0.41 | 0.00 | 76 | 1005.6 |
| 20260905103008 | 63 | 215 | 0.0 | 5.0 | 0.00 | 0.42 | 0.00 | 77 | 1005.6 |
| 20260905102005 | 63 | 237 | 1.0 | 9.0 | 0.00 | 0.43 | 0.00 | 76 | 1005.5 |
| 20260905101005 | 63 | 213 | 0.0 | 9.0 | 0.00 | 0.43 | 0.00 | 78 | 1005.3 |
| 20260905100007 | 62 | 265 | 0.0 | 7.0 | 0.00 | 0.43 | 0.00 | 77 | 1005.3 |
| 20260905095005 | 63 | 270 | 0.0 | 7.0 | 0.00 | 0.43 | 0.00 | 77 | 1005.3 |
| 20260905094005 | 63 | 250 | 1.0 | 12.0 | 0.00 | 0.43 | 0.00 | 76 | 1005.2 |
| 20260905093008 | 62 | 251 | 1.0 | 15.0 | 0.00 | 0.44 | 0.00 | 77 | 1005.1 |
| 20260905092005 | 62 | 265 | 0.0 | 7.0 | 0.00 | 0.45 | 0.00 | 75 | 1005.0 |
| 20260905091005 | 62 | 247 | 1.0 | 10.0 | 0.00 | 0.45 | 0.00 | 75 | 1004.9 |
| 20260905090007 | 62 | 274 | 0.0 | 12.0 | 0.00 | 0.45 | 0.00 | 76 | 1004.9 |
| 20260905085005 | 62 | 247 | 1.0 | 13.0 | 0.00 | 0.45 | 0.00 | 77 | 1004.8 |
| 20260905084005 | 62 | 230 | 1.0 | 10.0 | 0.00 | 0.46 | 0.00 | 78 | 1004.7 |
| 20260905083008 | 62 | 240 | 0.0 | 3.0 | 0.00 | 0.46 | 0.00 | 80 | 1004.6 |
| 20260905082006 | 61 | 246 | 1.0 | 10.0 | 0.00 | 0.46 | 0.00 | 80 | 1004.6 |
| 20260905081005 | 61 | 249 | 1.0 | 13.0 | 0.00 | 0.46 | 0.00 | 79 | 1004.6 |
| 20260905080007 | 61 | 234 | 1.0 | 13.0 | 0.00 | 0.46 | 0.00 | 79 | 1004.5 |
| 20260905075005 | 61 | 231 | 3.0 | 13.0 | 0.00 | 0.46 | 0.00 | 80 | 1004.3 |
| 20260905074006 | 61 | 251 | 2.0 | 12.0 | 0.00 | 0.46 | 0.00 | 82 | 1004.2 |
| 20260905073007 | 61 | 242 | 1.0 | 8.0 | 0.00 | 0.46 | 0.00 | 82 | 1004.2 |
| 20260905072005 | 60 | 245 | 1.0 | 7.0 | 0.00 | 0.46 | 0.00 | 83 | 1004.1 |
| 20260905071006 | 60 | 258 | 1.0 | 10.0 | 0.00 | 0.46 | 0.00 | 84 | 1004.1 |
| 20260905070007 | 60 | 236 | 2.0 | 14.0 | 0.00 | 0.46 | 0.00 | 86 | 1004.0 |
| 20260905065006 | 59 | 242 | 0.0 | 12.0 | 0.00 | 0.46 | 0.00 | 86 | 1004.0 |
| 20260905064005 | 59 | 228 | 1.0 | 9.0 | 0.00 | 0.46 | 0.00 | 87 | 1004.0 |
| 20260905063010 | 59 | 248 | 1.0 | 12.0 | 0.00 | 0.46 | 0.00 | 87 | 1004.0 |
| 20260905062006 | 59 | 233 | 1.0 | 14.0 | 0.00 | 0.46 | 0.00 | 87 | 1004.0 |
| 20260905061007 | 59 | 239 | 1.0 | 13.0 | 0.00 | 0.46 | 0.00 | 88 | 1003.8 |
| 20260905060009 | 58 | 247 | 1.0 | 10.0 | 0.00 | 0.46 | 0.00 | 88 | 1003.6 |
| 20260905055008 | 58 | 250 | 1.0 | 12.0 | 0.00 | 0.46 | 0.00 | 88 | 1003.5 |
| 20260905054006 | 58 | 238 | 0.0 | 10.0 | 0.00 | 0.46 | 0.00 | 88 | 1003.5 |
| 20260905053010 | 58 | 256 | 1.0 | 9.0 | 0.00 | 0.46 | 0.00 | 87 | 1003.5 |
| 20260905052006 | 58 | 234 | 2.0 | 16.0 | 0.00 | 0.46 | 0.00 | 87 | 1003.5 |
| 20260905051006 | 58 | 246 | 0.0 | 7.0 | 0.00 | 0.46 | 0.00 | 87 | 1003.4 |
| 20260905050007 | 58 | 242 | 1.0 | 6.0 | 0.00 | 0.46 | 0.00 | 87 | 1003.1 |
| 20260905045005 | 58 | 257 | 0.0 | 6.0 | 0.00 | 0.46 | 0.00 | 87 | 1003.0 |
| 20260905044005 | 58 | 251 | 0.0 | 3.0 | 0.00 | 0.46 | 0.00 | 87 | 1003.0 |
| 20260905043007 | 58 | 231 | 0.0 | 6.0 | 0.00 | 0.46 | 0.00 | 86 | 1002.9 |
| 20260905042005 | 58 | 236 | 1.0 | 7.0 | 0.00 | 0.46 | 0.00 | 86 | 1002.8 |
| 20260905041005 | 58 | 240 | 0.0 | 12.0 | 0.00 | 0.46 | 0.00 | 86 | 1002.7 |
| 20260905040008 | 58 | 262 | 1.0 | 10.0 | 0.00 | 0.46 | 0.00 | 87 | 1002.6 |
| 20260905035005 | 58 | 240 | 0.0 | 9.0 | 0.00 | 0.46 | 0.00 | 87 | 1002.5 |
| 20260905034007 | 58 | 252 | 1.0 | 12.0 | 0.00 | 0.46 | 0.00 | 87 | 1002.4 |
| 20260905033008 | 58 | 247 | 1.0 | 10.0 | 0.00 | 0.46 | 0.00 | 87 | 1002.4 |
| 20260905032005 | 58 | 235 | 0.0 | 9.0 | 0.00 | 0.46 | 0.00 | 87 | 1002.4 |
| 20260905031006 | 58 | 228 | 0.0 | 9.0 | 0.00 | 0.46 | 0.00 | 87 | 1002.4 |
| 20260905030008 | 58 | 255 | 1.0 | 9.0 | 0.00 | 0.46 | 0.00 | 87 | 1002.3 |
| 20260905025006 | 58 | 237 | 1.0 | 9.0 | 0.00 | 0.46 | 0.00 | 87 | 1002.1 |
| 20260905024006 | 58 | 259 | 0.0 | 3.0 | 0.00 | 0.46 | 0.00 | 87 | 1001.9 |
| 20260905023008 | 58 | 252 | 0.0 | 5.0 | 0.00 | 0.46 | 0.00 | 87 | 1001.9 |
| 20260905022006 | 58 | 266 | 0.0 | 3.0 | 0.00 | 0.46 | 0.00 | 87 | 1001.9 |
| 20260905021005 | 58 | 271 | 1.0 | 10.0 | 0.00 | 0.46 | 0.00 | 87 | 1001.8 |
| 20260905020007 | 58 | 291 | 1.0 | 10.0 | 0.00 | 0.46 | 0.00 | 87 | 1001.5 |
| 20260905015005 | 58 | 275 | 0.0 | 5.0 | 0.00 | 0.46 | 0.00 | 88 | 1001.4 |
| 20260905014006 | 58 | 269 | 0.0 | 3.0 | 0.00 | 0.46 | 0.00 | 88 | 1001.4 |
| 20260905013007 | 58 | 280 | 0.0 | 6.0 | 0.00 | 0.46 | 0.00 | 89 | 1001.1 |
| 20260905012006 | 58 | 256 | 0.0 | 5.0 | 0.00 | 0.46 | 0.00 | 89 | 1001.0 |
| 20260905011005 | 58 | 267 | 1.0 | 9.0 | 0.00 | 0.46 | 0.00 | 89 | 1000.9 |
| 20260905010008 | 58 | 279 | 0.0 | 10.0 | 0.00 | 0.46 | 0.00 | 89 | 1000.8 |
| 20260905005005 | 58 | 248 | 0.0 | 10.0 | 0.00 | 0.46 | 0.00 | 89 | 1000.9 |
| 20260905004006 | 58 | 259 | 0.0 | 6.0 | 0.00 | 0.46 | 0.00 | 89 | 1000.8 |
| 20260905003008 | 58 | 205 | 0.0 | 6.0 | 0.00 | 0.46 | 0.00 | 89 | 1000.5 |
| 20260905002005 | 58 | 241 | 1.0 | 9.0 | 0.00 | 0.46 | 0.00 | 89 | 1000.4 |
| 20260905001005 | 58 | 254 | 2.0 | 14.0 | 0.00 | 0.47 | 0.00 | 89 | 1000.3 |
| 20260905000008 | 58 | 257 | 1.0 | 9.0 | 0.00 | 0.47 | 0.00 | 89 | 1000.4 |
| 20260904235005 | 58 | 249 | 1.0 | 12.0 | 0.00 | 0.47 | 0.00 | 89 | 1000.3 |
| 20260904234006 | 58 | 258 | 1.0 | 12.0 | 0.00 | 0.47 | 0.00 | 90 | 1000.3 |
| 20260904233008 | 58 | 236 | 2.0 | 18.0 | 0.00 | 0.48 | 0.00 | 89 | 1000.3 |
| 20260904232005 | 58 | 250 | 0.0 | 12.0 | 0.00 | 0.50 | 0.00 | 89 | 1000.2 |
| 20260904231006 | 58 | 247 | 1.0 | 9.0 | 0.00 | 0.50 | 0.00 | 89 | 1000.1 |
| 20260904230007 | 58 | 233 | 0.0 | 16.0 | 0.00 | 0.50 | 0.00 | 89 | 1000.2 |
| 20260904225006 | 58 | 263 | 1.0 | 12.0 | 0.00 | 0.50 | 0.00 | 89 | 1000.1 |
| 20260904224005 | 58 | 237 | 0.0 | 9.0 | 0.00 | 0.50 | 0.00 | 89 | 1000.2 |
| 20260904223007 | 58 | 236 | 1.0 | 13.0 | 0.00 | 0.50 | 0.00 | 90 | 1000.2 |
| 20260904222006 | 58 | 250 | 0.0 | 13.0 | 0.00 | 0.50 | 0.00 | 90 | 1000.1 |
| 20260904221005 | 58 | 245 | 2.0 | 12.0 | 0.00 | 0.50 | 0.00 | 90 | 1000.1 |
| 20260904220008 | 58 | 261 | 1.0 | 13.0 | 0.00 | 0.50 | 0.00 | 90 | 1000.0 |
| 20260904215006 | 58 | 255 | 2.0 | 16.0 | 0.00 | 0.50 | 0.50 | 90 | 999.8 |
| 20260904214005 | 58 | 249 | 2.0 | 10.0 | 0.00 | 0.50 | 0.50 | 90 | 999.8 |
| 20260904213008 | 58 | 249 | 5.0 | 15.0 | 0.00 | 0.50 | 0.50 | 90 | 999.8 |
| 20260904212006 | 58 | 245 | 3.0 | 14.0 | 0.00 | 0.50 | 0.50 | 91 | 999.7 |
| 20260904211005 | 58 | 248 | 5.0 | 14.0 | 0.00 | 0.50 | 0.50 | 91 | 999.7 |
| 20260904210007 | 57 | 264 | 3.0 | 15.0 | 0.00 | 0.50 | 0.50 | 91 | 999.5 |
| 20260904205006 | 57 | 256 | 1.0 | 9.0 | 0.00 | 0.50 | 0.50 | 91 | 999.4 |
| 20260904204006 | 57 | 287 | 3.0 | 12.0 | 0.00 | 0.50 | 0.50 | 92 | 999.3 |
| 20260904203008 | 57 | 248 | 3.0 | 15.0 | 0.00 | 0.50 | 0.50 | 92 | 999.3 |
| 20260904202005 | 58 | 254 | 3.0 | 12.0 | 0.00 | 0.50 | 0.50 | 93 | 999.2 |
| 20260904201006 | 58 | 217 | 3.0 | 14.0 | 0.00 | 0.50 | 0.50 | 93 | 999.1 |
| 20260904200008 | 58 | 266 | 5.0 | 14.0 | 0.01 | 0.50 | 0.50 | 93 | 998.9 |
| 20260904195005 | 58 | 234 | 4.0 | 15.0 | 0.01 | 0.50 | 0.50 | 93 | 998.8 |
| 20260904194006 | 58 | 268 | 3.0 | 12.0 | 0.04 | 0.50 | 0.50 | 94 | 998.6 |
| 20260904193008 | 58 | 230 | 2.0 | 6.0 | 0.04 | 0.50 | 0.50 | 94 | 998.7 |
| 20260904192005 | 58 | 257 | 2.0 | 12.0 | 0.04 | 0.50 | 0.50 | 94 | 998.6 |
| 20260904191005 | 58 | 239 | 3.0 | 12.0 | 0.05 | 0.50 | 0.50 | 94 | 998.4 |
| 20260904190017 | 58 | 232 | 4.0 | 13.0 | 0.04 | 0.49 | 0.49 | 93 | 998.2 |
| 20260904185005 | 58 | 223 | 2.0 | 14.0 | 0.04 | 0.49 | 0.49 | 93 | 998.1 |
| 20260904184006 | 58 | 239 | 6.0 | 13.0 | 0.01 | 0.46 | 0.46 | 93 | 998.0 |
| 20260904183008 | 58 | 238 | 3.0 | 7.0 | 0.01 | 0.46 | 0.46 | 93 | 998.0 |
| 20260904182005 | 58 | 237 | 3.0 | 13.0 | 0.01 | 0.46 | 0.46 | 93 | 997.9 |
| 20260904181005 | 58 | 219 | 2.0 | 12.0 | 0.00 | 0.45 | 0.45 | 93 | 997.9 |
| 20260904180007 | 58 | 197 | 2.0 | 9.0 | 0.00 | 0.45 | 0.45 | 93 | 997.8 |
| 20260904175005 | 58 | 229 | 1.0 | 6.0 | 0.00 | 0.45 | 0.45 | 93 | 997.8 |
| 20260904174006 | 59 | 213 | 1.0 | 6.0 | 0.00 | 0.45 | 0.45 | 93 | 997.8 |
| 20260904173008 | 59 | 205 | 0.0 | 8.0 | 0.00 | 0.45 | 0.45 | 93 | 997.8 |
| 20260904172006 | 59 | 198 | 2.0 | 8.0 | 0.00 | 0.45 | 0.45 | 93 | 997.8 |
| 20260904171005 | 59 | 233 | 1.0 | 9.0 | 0.00 | 0.45 | 0.45 | 93 | 997.8 |
| 20260904170008 | 59 | 236 | 2.0 | 9.0 | 0.00 | 0.45 | 0.45 | 93 | 997.9 |
| 20260904165005 | 60 | 209 | 0.0 | 2.0 | 0.00 | 0.45 | 0.45 | 93 | 997.7 |
| 20260904164005 | 60 | 216 | 0.0 | 3.0 | 0.00 | 0.45 | 0.45 | 93 | 997.4 |
| 20260904163008 | 60 | 235 | 0.0 | 2.0 | 0.00 | 0.45 | 0.45 | 93 | 997.7 |
| 20260904162005 | 60 | 220 | 1.0 | 8.0 | 0.00 | 0.45 | 0.45 | 93 | 997.7 |
| 20260904161005 | 60 | 213 | 1.0 | 5.0 | 0.00 | 0.45 | 0.45 | 93 | 997.7 |
| 20260904160008 | 60 | 179 | 1.0 | 8.0 | 0.00 | 0.45 | 0.45 | 93 | 997.9 |
| 20260904155005 | 60 | 228 | 1.0 | 9.0 | 0.00 | 0.45 | 0.45 | 93 | 997.9 |